Weather History for Troy, AL

Change the Weather History Date:

Saturday, March 2, 2013

  Actual Average Record
Temperature  
Mean Temperature 37 °F 53 °F  
Max Temperature 42 °F 66 °F 80 °F (2012)
Min Temperature 31 °F 40 °F 25 °F (2005)
Degree Days  
Heating Degree Days 28 12  
Month to date heating degree days 52 24  
Since 1 July heating degree days 1658 1943  
Cooling Degree Days 0 0  
Month to date cooling degree days 0 0  
Year to date cooling degree days 20 5  
Moisture  
Dew Point 25 °F    
Average Humidity 61    
Maximum Humidity 75    
Minimum Humidity 46    
Precipitation  
Precipitation 0.00 in 0.16 in 1.86 in (2001)
Month to date precipitation 0.00 0.32  
Year to date precipitation 15.29 9.45  
Snow  
Snow 0.00 in - - ()
Month to date snowfall 0.0  
Since 1 July snowfall 0.0  
Snow Depth 0.00 in    
Sea Level Pressure  
Sea Level Pressure 30.10 in    
Wind  
Wind Speed 9 mph (WNW)    
Max Wind Speed 17 mph    
Max Gust Speed 22 mph    
Visibility 9 miles    
Events      
T = Trace of Precipitation, MM = Missing Value Source: NWS Daily Summary

Daily Weather History Graph

Daily Weather History Graph

Search for Another Location

Airport:

Trip Planner

Search our weather history database for the weather conditions in past years. The results will help you decide how hot, cold, wet, or windy it might be!

Date:

Astronomy

Mar. 02, 2013 Rise Set
Actual Time 6:09 AM CST 5:42 PM CST
Civil Twilight 5:45 AM CST 6:07 PM CST
Nautical Twilight 5:17 AM CST 6:35 PM CST
Astronomical Twilight 4:48 AM CST 7:03 PM CST
Moon 10:58 PM CST (3/2) 8:58 AM CST (3/2)
Length of Visible Light 12h 22m
Length of Day
11h 33m
Waning Gibbous, 74% of the Moon is Illuminated
Mar 2
Waning Gibbous
Mar 4
Last Quarter
Mar 11
New
Mar 19
First Quarter
Mar 27
Full

Hourly Weather History & Observations

Time (CST) Temp. Windchill Dew Point Humidity Pressure Visibility Wind Dir Wind Speed Gust Speed Precip Events Conditions
12:53 AM 33.1 °F 30.0 °F 24.1 °F 70% 30.09 in 9.0 mi West 3.5 mph - N/A   Clear
1:53 AM 32.0 °F 25.6 °F 24.1 °F 73% 30.06 in 7.0 mi WNW 6.9 mph - N/A   Clear
2:53 AM 32.0 °F 26.4 °F 25.0 °F 75% 30.06 in 8.0 mi West 5.8 mph - N/A   Overcast
3:53 AM 33.1 °F 28.7 °F 25.0 °F 72% 30.06 in 9.0 mi WNW 4.6 mph - N/A   Overcast
4:53 AM 34.0 °F - 26.1 °F 73% 30.06 in 9.0 mi Calm Calm - N/A   Overcast
5:53 AM 34.0 °F 29.8 °F 27.0 °F 75% 30.08 in 9.0 mi WNW 4.6 mph - N/A   Overcast
6:53 AM 35.1 °F 30.1 °F 27.0 °F 72% 30.09 in 7.0 mi WNW 5.8 mph - N/A   Overcast
7:10 AM 35.6 °F 30.7 °F 28.4 °F 75% 30.10 in 7.0 mi West 5.8 mph - N/A   Overcast
7:53 AM 37.0 °F 30.4 °F 28.0 °F 70% 30.11 in 7.0 mi West 9.2 mph - N/A   Overcast
8:35 AM 37.4 °F 28.9 °F 28.4 °F 70% 30.11 in 8.0 mi NW 13.8 mph - N/A   Overcast
8:53 AM 37.9 °F 30.5 °F 28.0 °F 68% 30.12 in 8.0 mi NW 11.5 mph 19.6 mph N/A   Overcast
9:38 AM 39.2 °F 31.6 °F 26.6 °F 61% 30.11 in 9.0 mi WNW 12.7 mph - N/A   Overcast
9:53 AM 39.9 °F 33.9 °F 26.1 °F 58% 30.12 in 10.0 mi WNW 9.2 mph 16.1 mph N/A   Overcast
10:53 AM 41.0 °F 35.2 °F 24.1 °F 51% 30.11 in 10.0 mi WNW 9.2 mph - N/A   Overcast
11:53 AM 41.0 °F 34.3 °F 23.0 °F 49% 30.10 in 10.0 mi NW 11.5 mph 20.7 mph N/A   Overcast
12:53 PM 41.0 °F 35.2 °F 24.1 °F 51% 30.07 in 10.0 mi WNW 9.2 mph - N/A   Overcast
1:53 PM 41.0 °F 33.9 °F 24.1 °F 51% 30.07 in 10.0 mi WNW 12.7 mph - N/A   Overcast
2:53 PM 41.0 °F 33.9 °F 24.1 °F 51% 30.07 in 10.0 mi WNW 12.7 mph - N/A   Overcast
3:53 PM 39.9 °F 31.8 °F 25.0 °F 55% 30.07 in 10.0 mi NW 15.0 mph 19.6 mph N/A   Overcast
4:53 PM 39.0 °F 32.3 °F 24.1 °F 55% 30.09 in 10.0 mi NW 10.4 mph - N/A   Overcast
5:53 PM 39.0 °F 32.8 °F 25.0 °F 57% 30.11 in 9.0 mi WNW 9.2 mph 18.4 mph N/A   Overcast
6:53 PM 37.9 °F 29.6 °F 25.0 °F 60% 30.12 in 10.0 mi NW 13.8 mph 20.7 mph N/A   Overcast
7:53 PM 37.0 °F 29.8 °F 26.1 °F 65% 30.13 in 10.0 mi NW 10.4 mph - N/A   Overcast
8:53 PM 37.0 °F 30.4 °F 25.0 °F 62% 30.14 in 10.0 mi NW 9.2 mph - N/A   Overcast
9:53 PM 37.0 °F 31.0 °F 24.1 °F 59% 30.14 in 10.0 mi NW 8.1 mph - N/A   Overcast
10:53 PM 36.0 °F 29.0 °F 23.0 °F 59% 30.13 in 10.0 mi NW 9.2 mph - N/A   Overcast
11:53 PM 36.0 °F 28.5 °F 23.0 °F 59% 30.12 in 10.0 mi NW 10.4 mph - N/A   Overcast